Hourly Data Report for February 08, 2017

All times are specified in Local Standard Time (LST). Add 1 hour to adjust for Daylight Saving Time where and when it is observed.

TORONTO CITY
ONTARIO

43°40'00.000" N
79°24'00.000" W
112.50 m
6158355
71508
XTO

Download Data

Hourly Data (February 2017)
Hourly Data Report for February 8, 2017
TIME Temp Definition
°C
Dew Point Definition
°C
Rel Hum Definition
%
Wind Dir Definition
10's deg

Wind Spd Definition
km/h
Visibility Definition
km
Stn Press Definition
kPa
Hmdx Definition


Wind Chill Definition


Weather Definition


00:00 4.0 3.5 97 LegendMM LegendMM   97.70     LegendNANA
01:00 4.3 3.0 91 LegendMM LegendMM   97.85     LegendNANA
02:00 3.7 1.6 86 LegendMM LegendMM   98.04     LegendNANA
03:00 3.1 0.8 85 LegendMM LegendMM   98.20     LegendNANA
04:00 3.7 0.7 80 LegendMM LegendMM   98.36     LegendNANA
05:00 2.6 -1.2 76 LegendMM LegendMM   98.67     LegendNANA
06:00 1.2 -3.4 72 LegendMM LegendMM   98.91     LegendNANA
07:00 0.3 -4.8 69 LegendMM LegendMM   99.09     LegendNANA
08:00 -0.1 -5.9 65 LegendMM LegendMM   99.24     LegendNANA
09:00 -0.6 -7.7 59 LegendMM LegendMM   99.40     LegendNANA
10:00 -0.3 -7.0 61 LegendMM LegendMM   99.49     LegendNANA
11:00 -0.6 -7.3 60 LegendMM LegendMM   99.62     LegendNANA
12:00 -0.7 -7.5 60 LegendMM LegendMM   99.64     LegendNANA
13:00 -0.8 -7.9 59 LegendMM LegendMM   99.68     LegendNANA
14:00 -0.1 -7.3 58 LegendMM LegendMM   99.65     LegendNANA
15:00 -1.4 -8.0 61 LegendMM LegendMM   99.67     LegendNANA
16:00 -1.8 -7.3 66 LegendMM LegendMM   99.72     LegendNANA
17:00 -3.3 -8.4 68 LegendMM LegendMM   99.80     LegendNANA
18:00 -4.1 -8.4 72 LegendMM LegendMM   99.83     LegendNANA
19:00 -4.2 -8.8 71 LegendMM LegendMM   99.88     LegendNANA
20:00 -4.7 -10.1 66 LegendMM LegendMM   99.93     LegendNANA
21:00 -5.2 -10.8 65 LegendMM LegendMM   99.96     LegendNANA
22:00 -5.5 -11.7 62 LegendMM LegendMM   99.89     LegendNANA
23:00 -6.2 -12.0 63 LegendMM LegendMM   99.90     LegendNANA

Notes on Data Quality.

Legend

  • E = Estimated
  • M = Missing
  • NA = Not Available
Date modified: